Simultaneous Nadir Overpasses (SNOs) Predictions

Prediction of SNOs between NOAA-20 and AQUA Satellite Orbit:

Table of predicted SNOs for the next 14.0 days since TLE Epoch: 9/3/2022
Index Date (NOAA-20) Time (NOAA-20) Lat,Lon (NOAA-20) SZA (NOAA-20 ) Date (AQUA) Time (AQUA) Lat,Lon (AQUA) SZA (AQUA ) Distance(km) Time Diff (sec)
1 09/04/2022 02:44:32 78.99, 31.74 86.11 09/04/2022 02:45:01 78.98, 31.62 86.11 2.71 29
2 09/04/2022 03:35:11 -79.22,-159.35 94.24 09/04/2022 03:34:22 -79.22,-159.29 94.21 1.26 49
3 09/06/2022 18:10:45 -78.96, -20.05 92.92 09/06/2022 18:11:25 -78.95, -20.17 92.93 2.75 40
4 09/06/2022 19:01:23 79.19, 148.91 86.73 09/06/2022 19:00:44 79.19, 148.95 86.76 0.82 39
5 09/09/2022 09:37:01 78.78, -72.78 88.29 09/09/2022 09:37:50 78.78, -72.70 88.24 1.71 49
6 09/09/2022 10:27:34 -79.23, 97.62 92.39 09/09/2022 10:27:06 -79.23, 97.60 92.37 0.58 28
7 09/12/2022 01:03:11 -78.82,-124.06 90.83 09/12/2022 01:04:11 -78.81,-124.11 90.87 1.06 60
8 09/12/2022 01:53:48 79.09, 45.07 88.78 09/12/2022 01:53:29 79.09, 45.19 88.77 2.65 19
9 09/14/2022 16:29:24 78.74,-176.11 90.24 09/14/2022 16:30:33 78.75,-176.07 90.18 0.98 69



Historial Predications of SNOs between NOAA-20 and AQUA
